STARLINK-30470, 57892

Orbit data source: Space-Track

STARLINK-30470, 57892 is a payload satellite in LEO that was launched on Wed, 20 Sep 2023 UTC via an FALCON 9 launch vehicle from the Air Force Eastern Test Range (AFETR). Payload-class satellites include a variety of spacecraft equipped with specific instruments for various scientific and technological missions. These include communications satellites like Starlink; space stations such as the ISS; scientific satellites like the Hubble; Earth observation satellites from companies like Planet Labs, Umbra, and HawkEye 360; GPS; miniature CubeSats for education and research; and military/defense satellites.

Loading next visibility...
Identifier
57892, 2023-146B
Orbit
LEO
Last TLE update
15 hours ago
Origin
Manufacturer
SpaceX/Seattle
Mission
Operational Commercial Communications
Bus & Motor
STARLINK V2M, Unknown motor
Mass
730 kg wet, ~700 kg dry
Launch date (UTC)
2023-09-20 (2 years ago)
Launch vehicle
FALCON 9
Launch site
Air Force Eastern Test Range (AFETR)
Object type
Payload
Rocket body
Debris
Shape & HBR
Box + 2 Pan, 29 m
Radar Cross Section
33.884 m², Large (>1 m²)

Expand to show TLE details & history

TLE from 15 hours ago
0 STARLINK-30470
1 57892U 23146B   25150.42696521 -.00000196  00000-0  51707-6 0  9998
2 57892  42.9974  52.7386 0000730 281.4662  78.6098 15.02542874 94456
Epoch: 2025-05-30T10:14Z
TLE epoch observation values (Epoch: 2025-05-30T10:14:49.794Z)
Latitude
-0.00002°
Longitude
10.84924°
Altitude
558.736 km
Speed
7.584 km/s
True Right ascension
03h 30m 57s
True Declination
0° 00' 00"
Sunlit
Object was in daylight at epoch
Visualization orbit readout
Latitude
13.97037°
Longitude
172.04927°
Altitude
558.394 km
Speed
7.585 km/s
Apparent Right ascension
17h 20m 46s
Apparent Declination
-24° 40' 25"
Sunlit
Object is in full shadow
Visualization observer readout
Local Sidereal Time
10:53:27
Azimuth
105.535° ESE
Elevation
-20.535°
Doppler factor
1
Orbital elements
Apogee altitude
561.489 km
Perigee altitude
560.476 km
Semi-major axis
6,939.12 km
Eccentricity
0.00007
Inclination
42.9974°
RAAN
52.7386°
Arg. of periapsis
281.4662°
True anomaly
Unknown
Mean anomaly
78.6098°
Eccentric anomaly
Unknown
Mean motion
3.7548 °/min
Orbital period
95.88 mins
BSTAR
5.1707e-7
Loading maneuver chart data...
Loading SW <> Apogee altitude chart data...
Loading historical data...
Loading historical data...
Loading historical data...
Loading historical data...
Loading historical data...
Loading historical data...
Loading historical data...

STARLINK-30470 Visibility forecast

Observer location: undefined°, undefined°

Span
Click to sort rows by Start time (UTC) header in descending order
Start Az.
Max El. time (UTC)
Max El. Az.
Max El.
End time (UTC)
End Az.
7 mins2025-05-31 02:41:43.239Z273.422° WNW2025-05-31 02:44:43.239Z218.219° SW30.036°2025-05-31 02:48:43.239Z144.983° SSE
6 mins2025-05-31 19:56:43.239Z195.172° SSW2025-05-31 19:59:43.239Z134.431° SE24.096°2025-05-31 20:02:43.239Z88.613° E
7 mins2025-05-31 21:36:43.239Z253.16° W2025-05-31 21:39:43.239Z20.907° NNE44.917°2025-05-31 21:43:43.239Z71.799° E
6 mins2025-05-31 23:17:43.239Z286.901° WNW2025-05-31 23:20:43.239Z11.076° NNE39.214°2025-05-31 23:23:43.239Z75.478° E
6 mins2025-06-01 00:58:43.239Z288.475° WNW2025-06-01 01:01:43.239Z102.91° ESE44.317°2025-06-01 01:04:43.239Z108.423° ESE
|